This is the latest recevied weather packets stored in our database for station/object SP6PGH-13. If no packets are shown the sender has not sent any weather packets the latest 10 day(s).
| Time | Temp. | Humidity | Pressure | Rain* | Wind** | Luminosity | Snow |
|---|---|---|---|---|---|---|---|
| 1787877823 | 15° C | 69% | 1004 hPa | - | - | - | - |
| 1787876922 | 15° C | 68% | 1004.1 hPa | - | - | - | - |
| 1787876021 | 15° C | 69% | 1004.4 hPa | - | - | - | - |
| 1787875120 | 15° C | 69% | 1004.8 hPa | - | - | - | - |
| 1787874219 | 15° C | 68% | 1005.1 hPa | - | - | - | - |
| 1787873318 | 15.56° C | 67% | 1005.1 hPa | - | - | - | - |
| 1787872417 | 15.56° C | 66% | 1005.2 hPa | - | - | - | - |
| 1787871516 | 16.11° C | 65% | 1005.3 hPa | - | - | - | - |
| 1787870615 | 16.11° C | 64% | 1005.4 hPa | - | - | - | - |
| 1787869714 | 16.11° C | 63% | 1005.4 hPa | - | - | - | - |
| 1787868813 | 16.11° C | 64% | 1005.6 hPa | - | - | - | - |
| 1787867912 | 15° C | 67% | 1005.8 hPa | - | - | - | - |
| 1787867012 | 15.56° C | 68% | 1006 hPa | - | - | - | - |
| 1787866110 | 15.56° C | 67% | 1006 hPa | - | - | - | - |
| 1787865209 | 15.56° C | 65% | 1006 hPa | - | - | - | - |
| 1787864308 | 16.67° C | 63% | 1005.9 hPa | - | - | - | - |
| 1787863407 | 16.67° C | 61% | 1005.7 hPa | - | - | - | - |
| 1787861605 | 18.33° C | 57% | 1005.7 hPa | - | - | - | - |
| 1787860704 | 17.78° C | 58% | 1005.7 hPa | - | - | - | - |
| 1787859803 | 17.78° C | 60% | 1005.6 hPa | - | - | - | - |
| 1787858901 | 17.78° C | 59% | 1005.5 hPa | - | - | - | - |
| 1787858000 | 18.33° C | 59% | 1005.5 hPa | - | - | - | - |
| 1787857099 | 18.33° C | 59% | 1005.7 hPa | - | - | - | - |
| 1787856198 | 19.44° C | 56% | 1005.7 hPa | - | - | - | - |
| 1787855297 | 20.56° C | 52% | 1005.6 hPa | - | - | - | - |
* Rain since midnight (hover to see other rain measurements)
** Current wind speed in m/s (hover to see current wind gust speed)